This is the latest recevied weather packets stored in our database for station/object CQ0XPG-11. If no packets are shown the sender has not sent any weather packets the latest 10 day(s).
| Time | Temp. | Humidity | Pressure | Rain* | Wind** | Luminosity | Snow |
|---|---|---|---|---|---|---|---|
| 1778142085 | 12.78° C | 100% | 1001 hPa | 0 mm | - | - | - |
| 1778141778 | 12.22° C | 100% | 1001 hPa | 0 mm | - | - | - |
| 1778141516 | 11.67° C | 100% | 1000.7 hPa | 0 mm | - | - | - |
| 1778141168 | 11.11° C | 100% | 1000.7 hPa | 0 mm | - | - | - |
| 1778140903 | 10.56° C | 100% | 1000.6 hPa | 0 mm | - | - | - |
| 1778140566 | 10.56° C | 100% | 1000.3 hPa | 0 mm | - | - | - |
| 1778140272 | 10° C | 100% | 1000 hPa | 0 mm | - | - | - |
| 1778139959 | 9.44° C | 100% | 999.9 hPa | 0 mm | - | - | - |
| 1778139675 | 8.89° C | 100% | 999.8 hPa | 0 mm | - | - | - |
| 1778139353 | 8.89° C | 100% | 999.7 hPa | 0 mm | - | - | - |
| 1778138747 | 8.33° C | 100% | 999.7 hPa | 0 mm | - | - | - |
| 1778138133 | 7.78° C | 100% | 999.6 hPa | 0 mm | - | - | - |
| 1778137849 | 7.78° C | 100% | 999.6 hPa | 0 mm | - | - | - |
| 1778137534 | 7.22° C | 100% | 999.5 hPa | 0 mm | - | - | - |
| 1778136932 | 6.67° C | 100% | 999.3 hPa | 0 mm | - | - | - |
| 1778136634 | 6.11° C | 100% | 999.2 hPa | 0 mm | - | - | - |
| 1778136324 | 6.11° C | 100% | 999.3 hPa | 0 mm | - | - | - |
| 1778136024 | 5.56° C | 100% | 999.2 hPa | 0 mm | - | - | - |
| 1778135731 | 5° C | 100% | 999.2 hPa | 0 mm | - | - | - |
| 1778135441 | 5° C | 100% | 999.2 hPa | 0 mm | - | - | - |
| 1778135104 | 5° C | 100% | 999.3 hPa | 0 mm | - | - | - |
| 1778134498 | 5° C | 100% | 999.1 hPa | 0 mm | - | - | - |
| 1778134208 | 4.44° C | 100% | 999.1 hPa | 0 mm | - | - | - |
| 1778133895 | 5° C | 100% | 999.1 hPa | 0 mm | - | - | - |
| 1778133607 | 5° C | 100% | 999 hPa | 0 mm | - | - | - |
* Rain since midnight (hover to see other rain measurements)
** Current wind speed in m/s (hover to see current wind gust speed)